Total_Precipitation_Accumulation
1.08 1.24 1.47 1.16 0.85 0.86 0.94 0.96 0.96 0.83 0.78 0.82 0.84 0.77 0.79 0.84 0.79 0.79 0.78 0.84 0.94 1.02 0.98 0.96 0.88 0.86 0.84 0.77 0.78 0.67 0.62 0.61 0.66 0.71 0.77 0.76 0.84 1.09 1.39 1.49 1.57 1.05 1.03
0.74 0.92 1.23 1.06 0.79 0.75 0.82 0.84 0.84 0.82 0.77 0.79 0.84 0.84 0.90 0.90 0.80 0.78 0.87 0.91 0.93 0.95 0.85 0.74 0.69 0.67 0.67 0.61 0.56 0.50 0.58 0.70 0.81 0.98 0.97 0.82 0.86 1.09 1.34 1.37 1.53 0.97 0.89
0.58 0.65 0.75 0.87 0.76 0.70 0.78 0.82 0.84 0.89 0.86 0.84 0.82 0.85 0.88 0.90 0.87 0.91 0.91 0.84 0.83 0.84 0.73 0.66 0.59 0.53 0.50 0.49 0.49 0.53 0.67 0.88 1.13 1.29 1.43 0.90 0.65 1.02 1.13 1.13 1.04 0.87 0.85
0.53 0.51 0.46 0.64 0.66 0.66 0.75 0.81 0.95 0.96 0.90 0.83 0.83 0.82 0.84 0.95 0.94 0.86 0.78 0.74 0.78 0.72 0.65 0.57 0.50 0.44 0.42 0.40 0.46 0.61 0.80 0.96 1.18 1.59 1.55 0.79 0.49 0.72 0.89 0.92 0.84 0.82 0.76
0.46 0.48 0.53 0.62 0.61 0.68 0.75 0.83 0.91 0.82 0.76 0.78 0.80 0.80 0.88 0.89 0.84 0.78 0.73 0.71 0.72 0.65 0.57 0.48 0.45 0.42 0.41 0.43 0.52 0.69 0.83 0.94 1.28 1.45 0.97 0.86 0.84 0.83 0.78 0.85 0.88 0.79 0.66
0.39 0.44 0.49 0.55 0.59 0.64 0.64 0.67 0.77 0.80 0.74 0.76 0.75 0.78 0.80 0.81 0.84 0.76 0.65 0.63 0.65 0.62 0.55 0.52 0.45 0.43 0.44 0.49 0.56 0.68 0.85 1.08 1.22 0.83 0.68 0.66 0.70 0.83 0.79 0.97 1.05 0.88 0.72
0.42 0.46 0.47 0.59 0.64 0.62 0.59 0.60 0.62 0.68 0.71 0.74 0.73 0.74 0.75 0.74 0.74 0.67 0.58 0.55 0.58 0.54 0.50 0.50 0.47 0.48 0.51 0.55 0.60 0.69 0.89 1.22 0.97 0.65 0.67 0.73 0.69 0.73 0.86 1.11 1.29 1.12 0.91
0.59 0.60 0.60 0.69 0.69 0.66 0.61 0.62 0.59 0.58 0.60 0.58 0.57 0.60 0.62 0.58 0.60 0.64 0.63 0.52 0.50 0.48 0.46 0.46 0.46 0.50 0.56 0.62 0.68 0.73 0.90 0.96 0.59 0.54 0.52 0.58 0.54 0.61 0.86 1.11 1.29 1.27 1.15
0.85 0.74 0.73 0.81 0.81 0.73 0.80 0.73 0.65 0.58 0.56 0.55 0.53 0.55 0.55 0.51 0.51 0.56 0.64 0.58 0.49 0.51 0.52 0.52 0.52 0.54 0.59 0.65 0.68 0.75 0.89 0.91 0.69 0.65 0.54 0.53 0.54 0.76 1.10 1.25 1.27 1.28 1.23
1.32 1.11 0.98 0.93 0.85 0.79 0.78 0.76 0.72 0.65 0.60 0.59 0.56 0.52 0.56 0.56 0.53 0.58 0.58 0.61 0.58 0.62 0.72 0.70 0.66 0.65 0.64 0.64 0.70 0.80 0.84 0.80 0.79 0.73 0.62 0.49 0.63 0.92 1.25 1.40 1.42 1.39 1.27
1.60 1.46 1.23 1.02 0.95 0.93 0.80 0.73 0.83 0.80 0.75 0.74 0.73 0.68 0.82 0.95 0.82 0.87 0.76 0.85 0.84 0.86 0.96 1.00 1.01 0.95 0.89 0.78 0.89 0.99 0.88 0.90 0.97 0.86 0.65 0.53 0.75 1.02 1.31 1.44 1.43 1.43 1.32
1.85 1.60 1.43 1.22 1.03 0.92 0.80 0.92 1.17 0.98 0.99 1.07 1.13 1.13 1.35 1.55 1.52 1.00 1.02 1.27 1.34 1.42 1.45 1.50 1.56 1.33 1.12 1.07 1.48 1.65 1.06 1.00 1.08 1.00 0.83 0.82 1.07 1.29 1.55 1.50 1.41 1.44 1.34
2.16 1.90 1.68 1.43 1.18 1.04 1.10 0.99 1.14 1.31 1.40 1.43 1.42 1.43 1.59 1.49 1.26 1.11 1.24 1.51 1.73 1.80 1.75 1.98 2.02 1.69 1.72 1.97 1.96 1.76 1.28 1.37 1.38 1.32 1.16 1.23 1.45 1.74 2.11 1.90 1.58 1.44 1.37
2.28 2.15 2.11 1.72 1.53 1.60 1.42 1.15 1.07 1.11 1.24 1.43 1.66 1.61 1.71 1.93 1.81 1.71 1.81 1.84 1.94 2.14 2.46 2.41 2.55 2.39 2.32 2.20 2.15 2.01 1.77 1.79 1.76 1.87 1.77 1.57 1.66 1.94 2.43 2.41 1.97 1.65 1.46
2.28 2.29 2.30 2.11 1.93 2.00 1.79 1.58 1.33 1.44 1.46 1.53 1.65 1.80 1.76 2.03 2.22 2.18 2.14 2.10 1.95 2.03 2.22 2.46 2.49 2.84 2.96 2.56 2.17 2.03 2.02 2.09 2.00 1.98 1.88 1.76 1.69 1.85 2.26 2.53 2.40 2.16 1.84
2.57 2.61 2.44 2.34 2.33 2.33 2.25 2.19 2.07 1.81 1.88 1.79 1.74 1.74 1.79 2.06 2.36 2.48 2.33 2.28 2.11 2.08 2.22 2.41 2.57 3.08 3.08 2.89 2.46 2.20 2.11 2.05 1.89 1.81 1.89 2.07 1.91 1.80 1.95 2.28 2.52 2.50 2.33
2.95 2.98 2.98 2.93 3.05 2.97 2.81 2.68 2.45 2.26 2.11 2.08 2.13 2.14 2.04 2.09 2.35 2.39 2.22 2.12 2.16 2.29 2.48 2.49 2.61 2.90 2.67 2.66 2.45 2.22 2.01 1.81 1.65 1.60 1.77 1.98 1.89 1.82 1.96 2.12 2.35 2.49 2.59
3.18 3.34 3.51 3.49 3.49 3.34 3.33 3.26 2.98 2.74 2.56 2.40 2.34 2.38 2.23 2.17 2.22 2.42 2.24 2.08 2.39 2.42 2.53 2.81 2.92 2.92 2.85 2.86 2.60 2.23 1.97 1.83 1.48 1.38 1.41 1.57 1.81 1.59 1.87 2.09 2.15 2.24 2.52
3.63 3.89 4.07 4.04 3.89 3.63 3.67 3.65 3.48 3.31 2.97 2.61 2.46 2.37 2.23 2.19 2.29 2.55 2.54 2.64 2.69 2.74 2.77 2.64 3.00 3.02 2.89 2.92 2.53 2.25 1.85 1.64 1.46 1.29 1.25 1.25 1.44 1.56 1.68 1.75 1.86 1.97 2.40
4.13 4.53 4.37 4.25 4.42 4.29 4.13 3.98 3.71 3.26 2.83 2.69 2.65 2.45 2.30 2.33 2.41 2.78 2.64 2.66 2.72 2.86 2.93 2.90 2.96 2.95 2.69 2.68 2.37 2.16 1.78 1.37 1.31 1.26 1.12 1.14 1.23 1.25 1.49 1.77 1.93 1.71 2.04
4.18 4.57 4.72 4.72 4.61 4.39 3.99 3.66 3.41 3.19 3.01 2.76 2.58 2.51 2.39 2.26 2.40 2.80 2.67 2.89 2.84 2.83 2.84 2.86 2.93 2.79 2.42 2.60 2.67 2.20 1.67 1.30 1.31 1.13 1.07 1.12 1.16 1.17 1.43 1.75 1.96 1.93 1.75
3.83 4.29 4.59 4.73 4.61 4.22 3.81 3.59 3.44 3.38 3.01 2.72 2.68 2.75 2.58 2.57 2.60 2.64 2.80 2.78 2.83 2.93 2.86 2.81 2.88 2.69 2.29 2.46 2.72 2.78 2.15 1.74 1.35 0.97 1.07 1.17 1.26 1.36 1.41 1.56 1.76 1.95 1.92
3.37 3.68 3.80 3.95 3.91 3.76 3.77 3.77 3.68 3.63 3.17 3.05 3.04 3.02 2.83 2.80 2.79 2.78 2.76 2.69 2.68 2.54 2.55 2.59 2.60 2.63 2.50 2.38 2.61 2.92 2.49 2.00 1.67 1.18 1.10 1.16 1.34 1.55 1.57 1.63 1.66 1.86 2.02
2.91 3.26 3.49 3.55 3.50 3.41 3.50 3.54 3.40 3.19 3.01 3.11 3.37 3.33 3.05 2.81 2.63 2.42 2.33 2.43 2.44 2.30 2.32 2.04 2.15 2.33 2.32 2.16 2.36 2.42 2.44 2.42 2.32 1.69 1.26 1.14 1.28 1.44 1.59 1.51 1.52 1.76 2.07
2.52 2.81 3.06 3.32 3.41 3.36 3.40 3.32 3.33 3.20 3.19 3.22 3.17 3.14 2.90 2.68 2.34 2.02 1.99 2.10 2.10 2.03 1.97 1.91 2.06 1.96 1.89 1.89 2.09 2.27 2.34 2.39 2.30 2.16 1.74 1.65 1.62 1.50 1.44 1.46 1.64 1.81 1.98
2.16 2.28 2.41 2.63 2.91 3.08 3.13 3.11 3.14 3.07 3.05 2.97 2.86 2.72 2.50 2.33 2.05 1.77 1.65 1.79 1.90 1.93 1.91 1.89 1.97 1.86 1.85 1.98 1.95 2.01 2.22 2.23 2.23 2.37 2.03 1.86 1.82 1.58 1.51 1.57 1.62 1.81 1.89